Fargo, ND

12:13 AM CDT on September 26, 2016 (GMT -0500)
Hector International

Weather History for KFAR - May, 2013

Change the Weather History Date:

Friday, May 10, 2013

  Actual Average Record
Temperature  
Mean Temperature 55 °F 55 °F  
Max Temperature 72 °F 68 °F 96 °F (1887)
Min Temperature 37 °F 43 °F 22 °F (1946)
Degree Days  
Heating Degree Days 10 10  
Month to date heating degree days 158 118  
Since 1 July heating degree days 9150 8574  
Cooling Degree Days 0 1  
Month to date cooling degree days 0 6  
Year to date cooling degree days 0 9  
Growing Degree Days 4 (Base 50)    
Moisture  
Dew Point 31 °F    
Average Humidity 56    
Maximum Humidity 85    
Minimum Humidity 26    
Precipitation  
Precipitation T in 0.09 in 1.52 in (1905)
Month to date precipitation 0.14 0.80  
Year to date precipitation 5.88 4.80  
Snow  
Snow 0.00 in 0.00 in T in (2008)
Month to date snowfall 0.0 0.0  
Since 1 July snowfall 68.4 50.4  
Snow Depth 0.00 in    
Sea Level Pressure  
Sea Level Pressure 30.07 in    
Wind  
Wind Speed 16 mph (SSW)    
Max Wind Speed 41 mph    
Max Gust Speed 48 mph    
Visibility 10 miles    
Events      
T = Trace of Precipitation, MM = Missing Value Source: NWS Daily Summary

Daily Weather History Graph

Daily Weather History Graph

Search for Another Location

Airport or City:

Trip Planner

Search our weather history database for the weather conditions in past years. The results will help you decide how hot, cold, wet, or windy it might be!

Date:

Astronomy

May. 10, 2013 Rise Set
Actual Time 5:58 AM CDT 8:49 PM CDT
Civil Twilight 5:23 AM CDT 9:25 PM CDT
Nautical Twilight 4:38 AM CDT 10:10 PM CDT
Astronomical Twilight 3:44 AM CDT 11:04 PM CDT
Moon 6:22 AM CDT (5/10) 9:41 PM CDT (5/10)
Length of Visible Light 16h 02m
Length of Day
14h 51m
New Moon, 0% of the Moon is Illuminated
May 10
New Moon
May 17
First Quarter
May 24
Full
May 31
Last Quarter
Jun 8
New

Hourly Weather History & Observations

Time (CDT) Temp. Windchill Dew Point Humidity Pressure Visibility Wind Dir Wind Speed Gust Speed Precip Events Conditions
12:53 AM 46.0 °F - 28.0 °F 50% 30.18 in 10.0 mi Calm Calm - N/A   Clear
1:53 AM 43.0 °F - 34.0 °F 71% 30.17 in 10.0 mi Calm Calm - N/A   Clear
2:53 AM 37.4 °F - 26.6 °F 65% 30.15 in 10.0 mi Calm Calm - N/A   Clear
3:53 AM 39.9 °F 35.8 °F 35.1 °F 83% 30.17 in 10.0 mi SE 5.8 mph - N/A   Clear
4:53 AM 43.0 °F 38.2 °F 37.0 °F 80% 30.15 in 10.0 mi SE 8.1 mph - N/A   Clear
5:53 AM 45.0 °F 38.5 °F 33.1 °F 63% 30.14 in 10.0 mi SSE 13.8 mph - N/A   Clear
6:53 AM 44.1 °F 37.7 °F 28.9 °F 55% 30.15 in 10.0 mi SSE 12.7 mph - N/A   Clear
7:53 AM 46.0 °F 40.2 °F 28.9 °F 51% 30.16 in 10.0 mi SSE 12.7 mph - N/A   Clear
8:53 AM 48.9 °F - 28.0 °F 44% 30.13 in 10.0 mi SSE 17.3 mph 24.2 mph N/A   Clear
9:53 AM 53.1 °F - 25.0 °F 34% 30.12 in 10.0 mi South 21.9 mph 26.5 mph N/A   Clear
10:53 AM 57.9 °F - 27.0 °F 31% 30.10 in 10.0 mi South 18.4 mph 25.3 mph N/A   Clear
11:53 AM 60.8 °F - 28.4 °F 29% 30.06 in 10.0 mi South 20.7 mph 27.6 mph N/A   Clear
12:53 PM 66.0 °F - 32.0 °F 28% 30.02 in 10.0 mi SSW 17.3 mph 29.9 mph N/A   Clear
1:53 PM 68.0 °F - 35.1 °F 30% 29.98 in 10.0 mi SSW 19.6 mph 26.5 mph N/A   Clear
2:53 PM 70.0 °F - 33.1 °F 26% 29.95 in 10.0 mi SSW 18.4 mph 26.5 mph N/A   Clear
3:53 PM 69.1 °F - 37.0 °F 31% 29.90 in 10.0 mi SSW 18.4 mph 25.3 mph N/A   Mostly Cloudy
4:53 PM 69.1 °F - 37.0 °F 31% 29.88 in 10.0 mi NW 15.0 mph - 0.00 in   Overcast
5:04 PM 71.6 °F - 37.4 °F 29% 29.87 in 10.0 mi NW 24.2 mph 31.1 mph N/A   Overcast
5:53 PM 68.0 °F - 36.0 °F 31% 29.90 in 10.0 mi North 40.3 mph 48.3 mph N/A   Overcast
6:53 PM 60.1 °F - 36.0 °F 41% 29.98 in 10.0 mi North 33.4 mph 46.0 mph N/A   Clear
7:53 PM 55.9 °F - 34.0 °F 44% 30.03 in 10.0 mi North 27.6 mph 44.9 mph N/A   Clear
8:53 PM 50.0 °F - 25.0 °F 38% 30.07 in 10.0 mi North 16.1 mph 27.6 mph N/A   Clear
9:53 PM 46.9 °F - 27.0 °F 46% 30.10 in 10.0 mi North 15.0 mph - N/A   Clear
10:53 PM 44.1 °F 37.4 °F 23.0 °F 43% 30.13 in 10.0 mi NNW 13.8 mph - N/A   Clear
11:53 PM 42.1 °F 34.9 °F 21.0 °F 43% 30.14 in 10.0 mi NNW 13.8 mph - N/A   Scattered Clouds